User: anonymous   Login
Location: Unspecified
(0.0000°N, 0.0000°E)
Time: 17:47:53
(UTC+00:00)
Language:

SAR-Lupe-2 - Orbit

View from above orbital plane
View from above orbital plane
View from above satellite
View from above satellite

Ground track
Ground track

The orbit data is extracted from the following two-line orbital elements,

1 31797U 07030A   19083.14488015 0.00000900  00000-0  33462-4 0    03
2 31797  98.1946 264.5705 0004000  94.2391 265.7607 15.27548525    04
Epoch (UTC): 24 March 2019 03:28:37
Eccentricity: 0.0004000
inclination: 98.1946°
perigee height: 480 km
apogee height: 486 km
right ascension of ascending node: 264.5705°
argument of perigee: 94.2391°
revolutions per day: 15.27548525
mean anomaly at epoch: 265.7607°
orbit number at epoch: 0

The dashed part of the orbit path shows where the satellite is in the earth's shadow,  

DLR